Year,Month,Day,Hour,Minute,Value (Times are PST for temperature in C)
2015,06,26,00,00,18.20
2015,06,26,00,01,18.20
2015,06,26,00,02,18.20
2015,06,26,00,03,18.10
2015,06,26,00,04,18.10
2015,06,26,00,05,18.10
2015,06,26,00,06,18.10
2015,06,26,00,07,18.10
2015,06,26,00,08,18.10
2015,06,26,00,09,18.10
2015,06,26,00,10,18.00
2015,06,26,00,11,18.00
2015,06,26,00,12,18.00
2015,06,26,00,13,18.00
2015,06,26,00,14,17.90
2015,06,26,00,15,17.90
2015,06,26,00,16,17.90
2015,06,26,00,17,17.90
2015,06,26,00,18,17.90
2015,06,26,00,19,17.90
2015,06,26,00,20,17.90
2015,06,26,00,21,17.80
2015,06,26,00,22,17.90
2015,06,26,00,23,17.90
2015,06,26,00,24,17.90
2015,06,26,00,25,17.90
2015,06,26,00,26,17.90
2015,06,26,00,27,17.90
2015,06,26,00,28,17.90
2015,06,26,00,29,17.90
2015,06,26,00,30,17.90
2015,06,26,00,31,17.80
2015,06,26,00,32,17.80
2015,06,26,00,33,17.80
2015,06,26,00,34,17.80
2015,06,26,00,35,17.80
2015,06,26,00,36,17.80
2015,06,26,00,37,17.80
2015,06,26,00,38,17.80
2015,06,26,00,39,17.70
2015,06,26,00,40,17.70
2015,06,26,00,41,17.70
2015,06,26,00,42,17.70
2015,06,26,00,43,17.70
2015,06,26,00,44,17.70
2015,06,26,00,45,17.70
2015,06,26,00,46,17.70
2015,06,26,00,47,17.60
2015,06,26,00,48,17.60
2015,06,26,00,49,17.60
2015,06,26,00,50,17.60
2015,06,26,00,51,17.60
2015,06,26,00,52,17.60
2015,06,26,00,53,17.60
2015,06,26,00,54,17.60
2015,06,26,00,55,17.60
2015,06,26,00,56,17.60
2015,06,26,00,57,17.50
2015,06,26,00,58,17.50
2015,06,26,00,59,17.50
2015,06,26,01,00,17.50
2015,06,26,01,01,17.50
2015,06,26,01,02,17.50
2015,06,26,01,03,17.50
2015,06,26,01,04,17.40
2015,06,26,01,05,17.40
2015,06,26,01,06,17.40
2015,06,26,01,07,17.40
2015,06,26,01,08,17.40
2015,06,26,01,09,17.40
2015,06,26,01,10,17.40
2015,06,26,01,11,17.40
2015,06,26,01,12,17.40
2015,06,26,01,13,17.40
2015,06,26,01,14,17.30
2015,06,26,01,15,17.30
2015,06,26,01,16,17.30
2015,06,26,01,17,17.30
2015,06,26,01,18,17.30
2015,06,26,01,19,17.30
2015,06,26,01,20,17.30
2015,06,26,01,21,17.30
2015,06,26,01,22,17.30
2015,06,26,01,23,17.20
2015,06,26,01,24,17.20
2015,06,26,01,25,17.20
2015,06,26,01,26,17.20
2015,06,26,01,27,17.20
2015,06,26,01,28,17.20
2015,06,26,01,29,17.20
2015,06,26,01,30,17.20
2015,06,26,01,31,17.10
2015,06,26,01,32,17.10
2015,06,26,01,33,17.10
2015,06,26,01,34,17.10
2015,06,26,01,35,17.10
2015,06,26,01,36,17.10
2015,06,26,01,37,17.10
2015,06,26,01,38,17.10
2015,06,26,01,39,17.00
2015,06,26,01,40,17.00
2015,06,26,01,41,17.00
2015,06,26,01,42,17.00
2015,06,26,01,43,16.90
2015,06,26,01,44,16.90
2015,06,26,01,45,16.90
2015,06,26,01,46,16.90
2015,06,26,01,47,16.90
2015,06,26,01,48,16.90
2015,06,26,01,49,16.80
2015,06,26,01,50,16.80
2015,06,26,01,51,16.70
2015,06,26,01,52,16.70
2015,06,26,01,53,16.70
2015,06,26,01,54,16.70
2015,06,26,01,55,16.60
2015,06,26,01,56,16.60
2015,06,26,01,57,16.60
2015,06,26,01,58,16.60
2015,06,26,01,59,16.50
2015,06,26,02,00,16.50
2015,06,26,02,01,16.50
2015,06,26,02,02,16.50
2015,06,26,02,03,16.40
2015,06,26,02,04,16.40
2015,06,26,02,05,16.40
2015,06,26,02,06,16.40
2015,06,26,02,07,16.40
2015,06,26,02,08,16.40
2015,06,26,02,09,16.40
2015,06,26,02,10,16.40
2015,06,26,02,11,16.40
2015,06,26,02,12,16.40
2015,06,26,02,13,16.40
2015,06,26,02,14,16.30
2015,06,26,02,15,16.30
2015,06,26,02,16,16.30
2015,06,26,02,17,16.30
2015,06,26,02,18,16.30
2015,06,26,02,19,16.30
2015,06,26,02,20,16.30
2015,06,26,02,21,16.30
2015,06,26,02,22,16.30
2015,06,26,02,23,16.30
2015,06,26,02,24,16.30
2015,06,26,02,25,16.30
2015,06,26,02,26,16.30
2015,06,26,02,27,16.30
2015,06,26,02,28,16.30
2015,06,26,02,29,16.30
2015,06,26,02,30,16.30
2015,06,26,02,31,16.30
2015,06,26,02,32,16.30
2015,06,26,02,33,16.30
2015,06,26,02,34,16.30
2015,06,26,02,35,16.30
2015,06,26,02,36,16.20
2015,06,26,02,37,16.20
2015,06,26,02,38,16.20
2015,06,26,02,39,16.20
2015,06,26,02,40,16.20
2015,06,26,02,41,16.20
2015,06,26,02,42,16.20
2015,06,26,02,43,16.10
2015,06,26,02,44,16.10
2015,06,26,02,45,16.10
2015,06,26,02,46,16.00
2015,06,26,02,47,16.00
2015,06,26,02,48,16.00
2015,06,26,02,49,16.00
2015,06,26,02,50,15.90
2015,06,26,02,51,15.90
2015,06,26,02,52,15.90
2015,06,26,02,53,15.90
2015,06,26,02,54,15.90
2015,06,26,02,55,15.90
2015,06,26,02,56,15.90
2015,06,26,02,57,15.90
2015,06,26,02,58,15.90
2015,06,26,02,59,15.90
2015,06,26,03,00,15.90
2015,06,26,03,01,15.90
2015,06,26,03,02,15.90
2015,06,26,03,03,15.90
2015,06,26,03,04,15.90
2015,06,26,03,05,15.90
2015,06,26,03,06,15.90
2015,06,26,03,07,15.90
2015,06,26,03,08,15.80
2015,06,26,03,09,15.80
2015,06,26,03,10,15.80
2015,06,26,03,11,15.80
2015,06,26,03,12,15.80
2015,06,26,03,13,15.80
2015,06,26,03,14,15.80
2015,06,26,03,15,15.80
2015,06,26,03,16,15.80
2015,06,26,03,17,15.80
2015,06,26,03,18,15.80
2015,06,26,03,19,15.80
2015,06,26,03,20,15.80
2015,06,26,03,21,15.80
2015,06,26,03,22,15.70
2015,06,26,03,23,15.70
2015,06,26,03,24,15.70
2015,06,26,03,25,15.70
2015,06,26,03,26,15.70
2015,06,26,03,27,15.70
2015,06,26,03,28,15.70
2015,06,26,03,29,15.60
2015,06,26,03,30,15.60
2015,06,26,03,31,15.60
2015,06,26,03,32,15.60
2015,06,26,03,33,15.60
2015,06,26,03,34,15.60
2015,06,26,03,35,15.60
2015,06,26,03,36,15.60
2015,06,26,03,37,15.50
2015,06,26,03,38,15.50
2015,06,26,03,39,15.50
2015,06,26,03,40,15.50
2015,06,26,03,41,15.50
2015,06,26,03,42,15.40
2015,06,26,03,43,15.40
2015,06,26,03,44,15.50
2015,06,26,03,45,15.50
2015,06,26,03,46,15.50
2015,06,26,03,47,15.50
2015,06,26,03,48,15.50
2015,06,26,03,49,15.50
2015,06,26,03,50,15.50
2015,06,26,03,51,15.50
2015,06,26,03,52,15.50
2015,06,26,03,53,15.50
2015,06,26,03,54,15.50
2015,06,26,03,55,15.50
2015,06,26,03,56,15.40
2015,06,26,03,57,15.40
2015,06,26,03,58,15.40
2015,06,26,03,59,15.40
2015,06,26,04,00,15.40
2015,06,26,04,01,15.40
2015,06,26,04,02,15.40
2015,06,26,04,03,15.40
2015,06,26,04,04,15.40
2015,06,26,04,05,15.30
2015,06,26,04,06,15.30
2015,06,26,04,07,15.30
2015,06,26,04,08,15.30
2015,06,26,04,09,15.30
2015,06,26,04,10,15.30
2015,06,26,04,11,15.30
2015,06,26,04,12,15.30
2015,06,26,04,13,15.30
2015,06,26,04,14,15.30
2015,06,26,04,15,15.30
2015,06,26,04,16,15.30
2015,06,26,04,17,15.30
2015,06,26,04,18,15.30
2015,06,26,04,19,15.30
2015,06,26,04,20,15.30
2015,06,26,04,21,15.30
2015,06,26,04,22,15.30
2015,06,26,04,23,15.30
2015,06,26,04,24,15.30
2015,06,26,04,25,15.30
2015,06,26,04,26,15.20
2015,06,26,04,27,15.20
2015,06,26,04,28,15.20
2015,06,26,04,29,15.20
2015,06,26,04,30,15.20
2015,06,26,04,31,15.20
2015,06,26,04,32,15.20
2015,06,26,04,33,15.10
2015,06,26,04,34,15.10
2015,06,26,04,35,15.10
2015,06,26,04,36,15.10
2015,06,26,04,37,15.10
2015,06,26,04,38,15.10
2015,06,26,04,39,15.00
2015,06,26,04,40,15.00
2015,06,26,04,41,15.00
2015,06,26,04,42,15.00
2015,06,26,04,43,14.90
2015,06,26,04,44,14.90
2015,06,26,04,45,14.90
2015,06,26,04,46,14.90
2015,06,26,04,47,14.90
2015,06,26,04,48,14.90
2015,06,26,04,49,14.90
2015,06,26,04,50,14.90
2015,06,26,04,51,14.90
2015,06,26,04,52,14.90
2015,06,26,04,53,14.90
2015,06,26,04,54,14.90
2015,06,26,04,55,14.90
2015,06,26,04,56,14.90
2015,06,26,04,57,14.90
2015,06,26,04,58,14.90
2015,06,26,04,59,14.90
2015,06,26,05,00,14.90
2015,06,26,05,01,14.90
2015,06,26,05,02,14.90
2015,06,26,05,03,14.80
2015,06,26,05,04,14.80
2015,06,26,05,05,14.80
2015,06,26,05,06,14.80
2015,06,26,05,07,14.80
2015,06,26,05,08,14.80
2015,06,26,05,09,14.80
2015,06,26,05,10,14.80
2015,06,26,05,11,14.80
2015,06,26,05,12,14.80
2015,06,26,05,13,14.80
2015,06,26,05,14,14.80
2015,06,26,05,15,14.80
2015,06,26,05,16,14.80
2015,06,26,05,17,14.80
2015,06,26,05,18,14.80
2015,06,26,05,19,14.80
2015,06,26,05,20,14.80
2015,06,26,05,21,14.80
2015,06,26,05,22,14.80
2015,06,26,05,23,14.80
2015,06,26,05,24,14.80
2015,06,26,05,25,14.80
2015,06,26,05,26,14.80
2015,06,26,05,27,14.80
2015,06,26,05,28,14.80
2015,06,26,05,29,14.80
2015,06,26,05,30,14.80
2015,06,26,05,31,14.80
2015,06,26,05,32,14.80
2015,06,26,05,33,14.80
2015,06,26,05,34,14.80
2015,06,26,05,35,14.80
2015,06,26,05,36,14.80
2015,06,26,05,37,14.80
2015,06,26,05,38,14.80
2015,06,26,05,39,14.80
2015,06,26,05,40,14.80
2015,06,26,05,41,14.80
2015,06,26,05,42,14.80
2015,06,26,05,43,14.80
2015,06,26,05,44,14.80
2015,06,26,05,45,14.80
2015,06,26,05,46,14.80
2015,06,26,05,47,14.80
2015,06,26,05,48,14.80
2015,06,26,05,49,14.80
2015,06,26,05,50,14.80
2015,06,26,05,51,14.80
2015,06,26,05,52,14.80
2015,06,26,05,53,14.80
2015,06,26,05,54,14.80
2015,06,26,05,55,14.90
2015,06,26,05,56,14.90
2015,06,26,05,57,14.90
2015,06,26,05,58,14.90
2015,06,26,05,59,14.90
2015,06,26,06,00,14.90
2015,06,26,06,01,14.90
2015,06,26,06,02,14.90
2015,06,26,06,03,14.90
2015,06,26,06,04,15.00
2015,06,26,06,05,15.00
2015,06,26,06,06,15.00
2015,06,26,06,07,15.00
2015,06,26,06,08,14.90
2015,06,26,06,09,14.90
2015,06,26,06,10,14.90
2015,06,26,06,11,14.90
2015,06,26,06,12,14.90
2015,06,26,06,13,14.90
2015,06,26,06,14,14.90
2015,06,26,06,15,14.90
2015,06,26,06,16,14.90
2015,06,26,06,17,14.90
2015,06,26,06,18,14.90
2015,06,26,06,19,14.90
2015,06,26,06,20,14.90
2015,06,26,06,21,14.90
2015,06,26,06,22,14.90
2015,06,26,06,23,14.90
2015,06,26,06,24,14.90
2015,06,26,06,25,14.90
2015,06,26,06,26,14.90
2015,06,26,06,27,14.90
2015,06,26,06,28,14.90
2015,06,26,06,29,14.90
2015,06,26,06,30,14.90
2015,06,26,06,31,14.90
2015,06,26,06,32,15.00
2015,06,26,06,33,15.00
2015,06,26,06,34,15.10
2015,06,26,06,35,15.10
2015,06,26,06,36,15.20
2015,06,26,06,37,15.30
2015,06,26,06,38,15.40
2015,06,26,06,39,15.50
2015,06,26,06,40,15.60
2015,06,26,06,41,15.70
2015,06,26,06,42,15.80
2015,06,26,06,43,15.90
2015,06,26,06,44,16.00
2015,06,26,06,45,16.10
2015,06,26,06,46,16.20
2015,06,26,06,47,16.40
2015,06,26,06,48,16.50
2015,06,26,06,49,16.60
2015,06,26,06,50,16.80
2015,06,26,06,51,16.90
2015,06,26,06,52,17.10
2015,06,26,06,53,17.20
2015,06,26,06,54,17.30
2015,06,26,06,55,17.50
2015,06,26,06,56,17.60
2015,06,26,06,57,17.60
2015,06,26,06,58,17.70
2015,06,26,06,59,17.80
2015,06,26,07,00,17.90
2015,06,26,07,01,18.00
2015,06,26,07,02,18.10
2015,06,26,07,03,18.20
2015,06,26,07,04,18.40
2015,06,26,07,05,18.50
2015,06,26,07,06,18.70
2015,06,26,07,07,18.80
2015,06,26,07,08,18.90
2015,06,26,07,09,19.10
2015,06,26,07,10,19.20
2015,06,26,07,11,19.30
2015,06,26,07,12,19.30
2015,06,26,07,13,19.40
2015,06,26,07,14,19.50
2015,06,26,07,15,19.60
2015,06,26,07,16,19.80
2015,06,26,07,17,19.90
2015,06,26,07,18,20.10
2015,06,26,07,19,20.10
2015,06,26,07,20,20.20
2015,06,26,07,21,20.30
2015,06,26,07,22,20.40
2015,06,26,07,23,20.50
2015,06,26,07,24,20.60
2015,06,26,07,25,20.70
2015,06,26,07,26,20.80
2015,06,26,07,27,20.90
2015,06,26,07,28,21.00
2015,06,26,07,29,21.10
2015,06,26,07,30,21.10
2015,06,26,07,31,21.10
2015,06,26,07,32,21.20
2015,06,26,07,33,21.30
2015,06,26,07,34,21.30
2015,06,26,07,35,21.40
2015,06,26,07,36,21.50
2015,06,26,07,37,21.60
2015,06,26,07,38,21.60
2015,06,26,07,39,21.70
2015,06,26,07,40,21.80
2015,06,26,07,41,21.90
2015,06,26,07,42,21.90
2015,06,26,07,43,22.00
2015,06,26,07,44,22.00
2015,06,26,07,45,22.10
2015,06,26,07,46,22.20
2015,06,26,07,47,22.20
2015,06,26,07,48,22.30
2015,06,26,07,49,22.30
2015,06,26,07,50,22.40
2015,06,26,07,51,22.40
2015,06,26,07,52,22.50
2015,06,26,07,53,22.60
2015,06,26,07,54,22.60
2015,06,26,07,55,22.60
2015,06,26,07,56,22.60
2015,06,26,07,57,22.50
2015,06,26,07,58,22.40
2015,06,26,07,59,22.40
2015,06,26,08,00,22.30
2015,06,26,08,01,22.30
2015,06,26,08,02,22.30
2015,06,26,08,03,22.30
2015,06,26,08,04,22.30
2015,06,26,08,05,22.30
2015,06,26,08,06,22.30
2015,06,26,08,07,22.30
2015,06,26,08,08,22.40
2015,06,26,08,09,22.50
2015,06,26,08,10,22.60
2015,06,26,08,11,22.70
2015,06,26,08,12,22.90
2015,06,26,08,13,22.90
2015,06,26,08,14,23.00
2015,06,26,08,15,23.10
2015,06,26,08,16,23.20
2015,06,26,08,17,23.20
2015,06,26,08,18,23.30
2015,06,26,08,19,23.30
2015,06,26,08,20,23.30
2015,06,26,08,21,23.30
2015,06,26,08,22,23.30
2015,06,26,08,23,23.30
2015,06,26,08,24,23.30
2015,06,26,08,25,23.30
2015,06,26,08,26,23.30
2015,06,26,08,27,23.30
2015,06,26,08,28,23.40
2015,06,26,08,29,23.40
2015,06,26,08,30,23.50
2015,06,26,08,31,23.60
2015,06,26,08,32,23.70
2015,06,26,08,33,23.70
2015,06,26,08,34,23.70
2015,06,26,08,35,23.70
2015,06,26,08,36,23.70
2015,06,26,08,37,23.60
2015,06,26,08,38,23.60
2015,06,26,08,39,23.60
2015,06,26,08,40,23.50
2015,06,26,08,41,23.60
2015,06,26,08,42,23.60
2015,06,26,08,43,23.70
2015,06,26,08,44,23.80
2015,06,26,08,45,23.90
2015,06,26,08,46,23.90
2015,06,26,08,47,24.00
2015,06,26,08,48,24.10
2015,06,26,08,49,24.10
2015,06,26,08,50,24.10
2015,06,26,08,51,24.10
2015,06,26,08,52,24.10
2015,06,26,08,53,24.10
2015,06,26,08,54,24.10
2015,06,26,08,55,24.10
2015,06,26,08,56,24.10
2015,06,26,08,57,24.10
2015,06,26,08,58,24.10
2015,06,26,08,59,24.10
2015,06,26,09,00,24.10
2015,06,26,09,01,24.10
2015,06,26,09,02,24.10
2015,06,26,09,03,24.10
2015,06,26,09,04,24.20
2015,06,26,09,05,24.20
2015,06,26,09,06,24.10
2015,06,26,09,07,24.10
2015,06,26,09,08,24.10
2015,06,26,09,09,24.10
2015,06,26,09,10,24.20
2015,06,26,09,11,24.20
2015,06,26,09,12,24.20
2015,06,26,09,13,24.20
2015,06,26,09,14,24.20
2015,06,26,09,15,24.30
2015,06,26,09,16,24.30
2015,06,26,09,17,24.30
2015,06,26,09,18,24.30
2015,06,26,09,19,24.30
2015,06,26,09,20,24.30
2015,06,26,09,21,24.20
2015,06,26,09,22,24.20
2015,06,26,09,23,24.20
2015,06,26,09,24,24.20
2015,06,26,09,25,24.10
2015,06,26,09,26,24.10
2015,06,26,09,27,24.10
2015,06,26,09,28,24.10
2015,06,26,09,29,24.00
2015,06,26,09,30,24.00
2015,06,26,09,31,24.00
2015,06,26,09,32,24.00
2015,06,26,09,33,24.10
2015,06,26,09,34,24.10
2015,06,26,09,35,24.10
2015,06,26,09,36,24.10
2015,06,26,09,37,24.00
2015,06,26,09,38,24.10
2015,06,26,09,39,24.10
2015,06,26,09,40,24.10
2015,06,26,09,41,24.10
2015,06,26,09,42,24.10
2015,06,26,09,43,24.20
2015,06,26,09,44,24.20
2015,06,26,09,45,24.20
2015,06,26,09,46,24.20
2015,06,26,09,47,24.10
2015,06,26,09,48,24.20
2015,06,26,09,49,24.30
2015,06,26,09,50,24.40
2015,06,26,09,51,24.50
2015,06,26,09,52,24.60
2015,06,26,09,53,24.60
2015,06,26,09,54,24.70
2015,06,26,09,55,24.70
2015,06,26,09,56,24.80
2015,06,26,09,57,24.80
2015,06,26,09,58,24.80
2015,06,26,09,59,24.90
2015,06,26,10,00,24.90
2015,06,26,10,01,24.90
2015,06,26,10,02,24.80
2015,06,26,10,03,24.80
2015,06,26,10,04,24.80
2015,06,26,10,05,24.90
2015,06,26,10,06,25.00
2015,06,26,10,07,25.10
2015,06,26,10,08,25.10
2015,06,26,10,09,25.10
2015,06,26,10,10,25.10
2015,06,26,10,11,25.10
2015,06,26,10,12,25.10
2015,06,26,10,13,25.20
2015,06,26,10,14,25.20
2015,06,26,10,15,25.30
2015,06,26,10,16,25.20
2015,06,26,10,17,25.10
2015,06,26,10,18,25.10
2015,06,26,10,19,25.10
2015,06,26,10,20,25.00
2015,06,26,10,21,25.10
2015,06,26,10,22,25.20
2015,06,26,10,23,25.30
2015,06,26,10,24,25.30
2015,06,26,10,25,25.20
2015,06,26,10,26,25.10
2015,06,26,10,27,25.00
2015,06,26,10,28,25.00
2015,06,26,10,29,24.90
2015,06,26,10,30,24.90
2015,06,26,10,31,24.90
2015,06,26,10,32,24.90
2015,06,26,10,33,24.90
2015,06,26,10,34,25.00
2015,06,26,10,35,25.20
2015,06,26,10,36,25.20
2015,06,26,10,37,25.30
2015,06,26,10,38,25.30
2015,06,26,10,39,25.40
2015,06,26,10,40,25.40
2015,06,26,10,41,25.30
2015,06,26,10,42,25.30
2015,06,26,10,43,25.40
2015,06,26,10,44,25.40
2015,06,26,10,45,25.40
2015,06,26,10,46,25.40
2015,06,26,10,47,25.40
2015,06,26,10,48,25.30
2015,06,26,10,49,25.20
2015,06,26,10,50,25.20
2015,06,26,10,51,25.30
2015,06,26,10,52,25.30
2015,06,26,10,53,25.30
2015,06,26,10,54,25.30
2015,06,26,10,55,25.30
2015,06,26,10,56,25.20
2015,06,26,10,57,25.20
2015,06,26,10,58,25.20
2015,06,26,10,59,25.20
2015,06,26,11,00,25.20
2015,06,26,11,01,25.20
2015,06,26,11,02,25.20
2015,06,26,11,03,25.30
2015,06,26,11,04,25.30
2015,06,26,11,05,25.20
2015,06,26,11,06,25.20
2015,06,26,11,07,25.20
2015,06,26,11,08,25.20
2015,06,26,11,09,25.20
2015,06,26,11,10,25.30
2015,06,26,11,11,25.30
2015,06,26,11,12,25.30
2015,06,26,11,13,25.30
2015,06,26,11,14,25.30
2015,06,26,11,15,25.30
2015,06,26,11,16,25.40
2015,06,26,11,17,25.40
2015,06,26,11,18,25.50
2015,06,26,11,19,25.40
2015,06,26,11,20,25.40
2015,06,26,11,21,25.40
2015,06,26,11,22,25.40
2015,06,26,11,23,25.40
2015,06,26,11,24,25.30
2015,06,26,11,25,25.40
2015,06,26,11,26,25.40
2015,06,26,11,27,25.40
2015,06,26,11,28,25.40
2015,06,26,11,29,25.40
2015,06,26,11,30,25.30
2015,06,26,11,31,25.40
2015,06,26,11,32,25.40
2015,06,26,11,33,25.30
2015,06,26,11,34,25.40
2015,06,26,11,35,25.50
2015,06,26,11,36,25.60
2015,06,26,11,37,25.60
2015,06,26,11,38,25.60
2015,06,26,11,39,25.60
2015,06,26,11,40,25.60
2015,06,26,11,41,25.70
2015,06,26,11,42,25.80
2015,06,26,11,43,25.80
2015,06,26,11,44,25.80
2015,06,26,11,45,25.70
2015,06,26,11,46,25.70
2015,06,26,11,47,25.70
2015,06,26,11,48,25.60
2015,06,26,11,49,25.70
2015,06,26,11,50,25.70
2015,06,26,11,51,25.80
2015,06,26,11,52,25.90
2015,06,26,11,53,25.90
2015,06,26,11,54,25.90
2015,06,26,11,55,26.00
2015,06,26,11,56,26.10
2015,06,26,11,57,26.10
2015,06,26,11,58,26.10
2015,06,26,11,59,26.10
2015,06,26,12,00,26.10
2015,06,26,12,01,26.20
2015,06,26,12,02,26.20
2015,06,26,12,03,26.20
2015,06,26,12,04,26.20
2015,06,26,12,05,26.20
2015,06,26,12,06,26.30
2015,06,26,12,07,26.30
2015,06,26,12,08,26.20
2015,06,26,12,09,26.20
2015,06,26,12,10,26.10
2015,06,26,12,11,26.10
2015,06,26,12,12,26.10
2015,06,26,12,13,26.20
2015,06,26,12,14,26.30
2015,06,26,12,15,26.40
2015,06,26,12,16,26.40
2015,06,26,12,17,26.40
2015,06,26,12,18,26.30
2015,06,26,12,19,26.30
2015,06,26,12,20,26.40
2015,06,26,12,21,26.40
2015,06,26,12,22,26.30
2015,06,26,12,23,26.30
2015,06,26,12,24,26.40
2015,06,26,12,25,26.40
2015,06,26,12,26,26.40
2015,06,26,12,27,26.30
2015,06,26,12,28,26.30
2015,06,26,12,29,26.30
2015,06,26,12,30,26.30
2015,06,26,12,31,26.50
2015,06,26,12,32,26.60
2015,06,26,12,33,26.60
2015,06,26,12,34,26.60
2015,06,26,12,35,26.60
2015,06,26,12,36,26.70
2015,06,26,12,37,26.60
2015,06,26,12,38,26.60
2015,06,26,12,39,26.50
2015,06,26,12,40,26.40
2015,06,26,12,41,26.40
2015,06,26,12,42,26.40
2015,06,26,12,43,26.40
2015,06,26,12,44,26.50
2015,06,26,12,45,26.60
2015,06,26,12,46,26.70
2015,06,26,12,47,26.60
2015,06,26,12,48,26.60
2015,06,26,12,49,26.60
2015,06,26,12,50,26.60
2015,06,26,12,51,26.60
2015,06,26,12,52,26.70
2015,06,26,12,53,26.70
2015,06,26,12,54,26.70
2015,06,26,12,55,26.70
2015,06,26,12,56,26.70
2015,06,26,12,57,26.70
2015,06,26,12,58,26.70
2015,06,26,12,59,26.60
2015,06,26,13,00,26.60
2015,06,26,13,01,26.70
2015,06,26,13,02,26.70
2015,06,26,13,03,26.80
2015,06,26,13,04,26.80
2015,06,26,13,05,27.00
2015,06,26,13,06,27.00
2015,06,26,13,07,27.00
2015,06,26,13,08,27.00
2015,06,26,13,09,27.00
2015,06,26,13,10,27.00
2015,06,26,13,11,27.00
2015,06,26,13,12,26.90
2015,06,26,13,13,27.00
2015,06,26,13,14,27.00
2015,06,26,13,15,26.90
2015,06,26,13,16,26.90
2015,06,26,13,17,26.80
2015,06,26,13,18,26.80
2015,06,26,13,19,26.80
2015,06,26,13,20,26.70
2015,06,26,13,21,26.70
2015,06,26,13,22,26.80
2015,06,26,13,23,26.80
2015,06,26,13,24,26.80
2015,06,26,13,25,26.80
2015,06,26,13,26,26.70
2015,06,26,13,27,26.70
2015,06,26,13,28,26.70
2015,06,26,13,29,26.80
2015,06,26,13,30,26.80
2015,06,26,13,31,26.80
2015,06,26,13,32,26.80
2015,06,26,13,33,26.90
2015,06,26,13,34,27.00
2015,06,26,13,35,27.10
2015,06,26,13,36,27.20
2015,06,26,13,37,27.30
2015,06,26,13,38,27.40
2015,06,26,13,39,27.40
2015,06,26,13,40,27.50
2015,06,26,13,41,27.60
2015,06,26,13,42,27.70
2015,06,26,13,43,27.70
2015,06,26,13,44,27.60
2015,06,26,13,45,27.50
2015,06,26,13,46,27.50
2015,06,26,13,47,27.40
2015,06,26,13,48,27.50
2015,06,26,13,49,27.60
2015,06,26,13,50,27.50
2015,06,26,13,51,27.40
2015,06,26,13,52,27.40
2015,06,26,13,53,27.40
2015,06,26,13,54,27.50
2015,06,26,13,55,27.60
2015,06,26,13,56,27.60
2015,06,26,13,57,27.60
2015,06,26,13,58,27.50
2015,06,26,13,59,27.40
2015,06,26,14,00,27.40
2015,06,26,14,01,27.50
2015,06,26,14,02,27.60
2015,06,26,14,03,27.70
2015,06,26,14,04,27.70
2015,06,26,14,05,27.80
2015,06,26,14,06,27.80
2015,06,26,14,07,27.80
2015,06,26,14,08,27.70
2015,06,26,14,09,27.80
2015,06,26,14,10,27.90
2015,06,26,14,11,27.90
2015,06,26,14,12,27.90
2015,06,26,14,13,28.00
2015,06,26,14,14,28.10
2015,06,26,14,15,28.10
2015,06,26,14,16,28.20
2015,06,26,14,17,28.20
2015,06,26,14,18,28.30
2015,06,26,14,19,28.30
2015,06,26,14,20,28.30
2015,06,26,14,21,28.40
2015,06,26,14,22,28.30
2015,06,26,14,23,28.30
2015,06,26,14,24,28.30
2015,06,26,14,25,28.30
2015,06,26,14,26,28.20
2015,06,26,14,27,28.20
2015,06,26,14,28,28.10
2015,06,26,14,29,28.00
2015,06,26,14,30,27.90
2015,06,26,14,31,27.90
2015,06,26,14,32,27.90
2015,06,26,14,33,27.90
2015,06,26,14,34,27.90
2015,06,26,14,35,27.80
2015,06,26,14,36,27.90
2015,06,26,14,37,28.00
2015,06,26,14,38,28.00
2015,06,26,14,39,28.20
2015,06,26,14,40,28.30
2015,06,26,14,41,28.40
2015,06,26,14,42,28.40
2015,06,26,14,43,28.40
2015,06,26,14,44,28.40
2015,06,26,14,45,28.40
2015,06,26,14,46,28.40
2015,06,26,14,47,28.40
2015,06,26,14,48,28.40
2015,06,26,14,49,28.40
2015,06,26,14,50,28.50
2015,06,26,14,51,28.50
2015,06,26,14,52,28.50
2015,06,26,14,53,28.40
2015,06,26,14,54,28.50
2015,06,26,14,55,28.50
2015,06,26,14,56,28.60
2015,06,26,14,57,28.60
2015,06,26,14,58,28.60
2015,06,26,14,59,28.70
2015,06,26,15,00,28.80
2015,06,26,15,01,28.90
2015,06,26,15,02,29.00
2015,06,26,15,03,29.00
2015,06,26,15,04,29.00
2015,06,26,15,05,29.00
2015,06,26,15,06,29.10
2015,06,26,15,07,29.10
2015,06,26,15,08,29.10
2015,06,26,15,09,29.10
2015,06,26,15,10,29.20
2015,06,26,15,11,29.20
2015,06,26,15,12,29.20
2015,06,26,15,13,29.20
2015,06,26,15,14,29.20
2015,06,26,15,15,29.20
2015,06,26,15,16,29.20
2015,06,26,15,17,29.30
2015,06,26,15,18,29.50
2015,06,26,15,19,29.50
2015,06,26,15,20,29.50
2015,06,26,15,21,29.50
2015,06,26,15,22,29.50
2015,06,26,15,23,29.30
2015,06,26,15,24,29.20
2015,06,26,15,25,29.00
2015,06,26,15,26,28.80
2015,06,26,15,27,28.80
2015,06,26,15,28,28.80
2015,06,26,15,29,28.80
2015,06,26,15,30,29.00
2015,06,26,15,31,29.10
2015,06,26,15,32,29.30
2015,06,26,15,33,29.30
2015,06,26,15,34,29.20
2015,06,26,15,35,29.20
2015,06,26,15,36,29.20
2015,06,26,15,37,29.30
2015,06,26,15,38,29.20
2015,06,26,15,39,29.20
2015,06,26,15,40,29.20
2015,06,26,15,41,29.20
2015,06,26,15,42,29.30
2015,06,26,15,43,29.30
2015,06,26,15,44,29.30
2015,06,26,15,45,29.30
2015,06,26,15,46,29.30
2015,06,26,15,47,29.50
2015,06,26,15,48,29.60
2015,06,26,15,49,29.70
2015,06,26,15,50,29.60
2015,06,26,15,51,29.60
2015,06,26,15,52,29.60
2015,06,26,15,53,29.60
2015,06,26,15,54,29.60
2015,06,26,15,55,29.50
2015,06,26,15,56,29.40
2015,06,26,15,57,29.40
2015,06,26,15,58,29.50
2015,06,26,15,59,29.70
2015,06,26,16,00,29.70
2015,06,26,16,01,29.90
2015,06,26,16,02,30.00
2015,06,26,16,03,30.00
2015,06,26,16,04,30.00
2015,06,26,16,05,30.10
2015,06,26,16,06,30.10
2015,06,26,16,07,30.00
2015,06,26,16,08,29.90
2015,06,26,16,09,30.00
2015,06,26,16,10,30.00
2015,06,26,16,11,29.90
2015,06,26,16,12,29.90
2015,06,26,16,13,29.90
2015,06,26,16,14,29.90
2015,06,26,16,15,29.80
2015,06,26,16,16,29.70
2015,06,26,16,17,29.60
2015,06,26,16,18,29.50
2015,06,26,16,19,29.30
2015,06,26,16,20,29.20
2015,06,26,16,21,29.10
2015,06,26,16,22,29.20
2015,06,26,16,23,29.20
2015,06,26,16,24,29.10
2015,06,26,16,25,29.10
2015,06,26,16,26,29.10
2015,06,26,16,27,29.10
2015,06,26,16,28,29.10
2015,06,26,16,29,29.00
2015,06,26,16,30,28.90
2015,06,26,16,31,28.80
2015,06,26,16,32,28.70
2015,06,26,16,33,28.60
2015,06,26,16,34,28.50
2015,06,26,16,35,28.40
2015,06,26,16,36,28.40
2015,06,26,16,37,28.40
2015,06,26,16,38,28.40
2015,06,26,16,39,28.40
2015,06,26,16,40,28.40
2015,06,26,16,41,28.40
2015,06,26,16,42,28.40
2015,06,26,16,43,28.40
2015,06,26,16,44,28.50
2015,06,26,16,45,28.50
2015,06,26,16,46,28.40
2015,06,26,16,47,28.40
2015,06,26,16,48,28.30
2015,06,26,16,49,28.40
2015,06,26,16,50,28.40
2015,06,26,16,51,28.50
2015,06,26,16,52,28.60
2015,06,26,16,53,28.80
2015,06,26,16,54,28.80
2015,06,26,16,55,28.90
2015,06,26,16,56,28.90
2015,06,26,16,57,28.90
2015,06,26,16,58,29.00
2015,06,26,16,59,29.10
2015,06,26,17,00,29.10
2015,06,26,17,01,29.20
2015,06,26,17,02,29.20
2015,06,26,17,03,29.20
2015,06,26,17,04,29.20
2015,06,26,17,05,29.20
2015,06,26,17,06,29.20
2015,06,26,17,07,29.10
2015,06,26,17,08,29.10
2015,06,26,17,09,29.10
2015,06,26,17,10,29.10
2015,06,26,17,11,29.20
2015,06,26,17,12,29.00
2015,06,26,17,13,29.00
2015,06,26,17,14,29.00
2015,06,26,17,15,29.10
2015,06,26,17,16,29.20
2015,06,26,17,17,29.20
2015,06,26,17,18,29.20
2015,06,26,17,19,29.20